FALCON 9 DEB (45720 NORAD) Tracking and Keplerian Element Data

This shows tracking and keplerian element data for the satellite.

Feedback or suggestion? Click here.




ElementValue
Catalog45720
NameFALCON 9 DEB
Epoch Orbit472
Epoch Day185.38856407
Epoch Year2020
RAAN18.3691
Inclination52.9973
Eccentricity0.00491
Argument of Perigee160.4331
Mean Anonmoly199.8604
Mean Motion16.17555681
Decay Rate0.00618375
L11 45720U 20035BR 20185.38856407 .00618375 11745-4 29499-3 0 9993
L22 45720 52.9973 18.3691 0049100 160.4331 199.8604 16.17555681 4720

Live tracking and technical data element details for FALCON 9 DEB (NORAD 45720). FALCON 9 DEB can be tracked NOW for your location showing map with azimuth and elevation plus other details from your city location.

Track the satellite on the map from your city or location and see movement details for azimuth, elevation, latitude, longitude, range, height, and movement on the map or in text.







IsCatalogInMostPopularTable: catalog: 45720, numindb: 4
Update: records affected: 1



GetName: 45720 FALCON 9 DEB

Hit Count: updated at: Sat, 04 Jul 2020 03:21:27 GMT